• In Russia
  • List of Countries
  • For 7 days
  • Water Temperature
  • Satellite Maps
  • Weather Map
  • Weather Widgets
  • user-avatar
    Login

    Hourly Weather Gold Coast

    Today, 23 April, Sunday

    Time Temperature Precipitation Wind Pressure Humidity
    00:00 +17°C° 0 mm 4 mps 763 mmHg 82%
    01:00 +17°C° 0 mm 4 mps 763 mmHg 81%
    02:00 +17°C° 0 mm 4 mps 762 mmHg 83%
    03:00 +15°C° 0 mm 4 mps 762 mmHg 84%
    04:00 +15°C° 0 mm 4 mps 762 mmHg 87%
    05:00 +15°C° 0 mm 4 mps 762 mmHg 87%
    06:00 +15°C° 0 mm 4 mps 762 mmHg 86%
    07:00 +17°C° 0 mm 4 mps 763 mmHg 86%
    08:00 +19°C° 0 mm 4 mps 763 mmHg 80%
    09:00 +21°C° 0 mm 4 mps 763 mmHg 73%
    10:00 +25°C° 0 mm 4 mps 763 mmHg 66%
    11:00 +25°C° 0 mm 4 mps 762 mmHg 64%
    12:00 +25°C° 0 mm 4 mps 762 mmHg 62%
    13:00 +26°C° 0 mm 4 mps 761 mmHg 60%
    14:00 +25°C° 0 mm 4 mps 761 mmHg 64%
    15:00 +25°C° 0 mm 4 mps 761 mmHg 68%
    16:00 +23°C° 0 mm 4 mps 761 mmHg 73%
    17:00 +21°C° 0 mm 4 mps 761 mmHg 79%
    18:00 +20°C° 0 mm 3 mps 761 mmHg 86%
    19:00 +18°C° 0 mm 3 mps 762 mmHg 93%
    20:00 +18°C° 0 mm 3 mps 762 mmHg 93%
    21:00 +17°C° 0 mm 3 mps 762 mmHg 93%
    22:00 +17°C° 0 mm 2 mps 762 mmHg 93%
    23:00 +17°C° 0 mm 3 mps 762 mmHg 93%

    Tomorrow, 24 April, Monday

    Time Temperature Precipitation Wind Pressure Humidity
    00:00 +17°C° 0 mm 3 mps 762 mmHg 92%
    01:00 +17°C° 0 mm 3 mps 762 mmHg 92%
    02:00 +17°C° 0 mm 3 mps 762 mmHg 93%
    03:00 +16°C° 0 mm 3 mps 761 mmHg 94%
    04:00 +16°C° 0 mm 3 mps 761 mmHg 95%
    05:00 +16°C° 0 mm 3 mps 761 mmHg 94%
    06:00 +17°C° 0 mm 3 mps 762 mmHg 93%
    07:00 +17°C° 0 mm 3 mps 762 mmHg 93%
    08:00 +19°C° 0 mm 3 mps 762 mmHg 84%
    09:00 +21°C° 0 mm 3 mps 762 mmHg 76%
    10:00 +24°C° 0 mm 3 mps 762 mmHg 68%
    11:00 +25°C° 0 mm 3 mps 761 mmHg 65%
    12:00 +25°C° 0 mm 3 mps 761 mmHg 63%
    13:00 +26°C° 0 mm 3 mps 760 mmHg 60%
    14:00 +25°C° 0 mm 3 mps 760 mmHg 65%
    15:00 +25°C° 0 mm 3 mps 760 mmHg 70%
    16:00 +23°C° 0 mm 4 mps 759 mmHg 76%
    17:00 +21°C° 0 mm 3 mps 760 mmHg 81%
    18:00 +19°C° 0 mm 3 mps 760 mmHg 87%
    19:00 +18°C° 0 mm 3 mps 761 mmHg 93%
    20:00 +17°C° 0 mm 2 mps 761 mmHg 93%
    21:00 +17°C° 0 mm 2 mps 761 mmHg 93%
    22:00 +16°C° 0 mm 2 mps 761 mmHg 93%
    23:00 +16°C° 0 mm 2 mps 761 mmHg 93%

    Day after tomorrow, 25 April, Tuesday

    Time Temperature Precipitation Wind Pressure Humidity
    00:00 +16°C° 0 mm 2 mps 760 mmHg 93%
    01:00 +15°C° 0 mm 1 mps 760 mmHg 93%
    02:00 +15°C° 0 mm 1 mps 760 mmHg 93%
    03:00 +15°C° 0 mm 1 mps 760 mmHg 93%
    04:00 +15°C° 0 mm 1 mps 760 mmHg 94%
    05:00 +16°C° 0 mm 1 mps 760 mmHg 93%
    06:00 +18°C° 0 mm 1 mps 760 mmHg 92%
    07:00 +19°C° 0 mm 1 mps 760 mmHg 92%
    08:00 +21°C° 0 mm 1 mps 760 mmHg 83%
    09:00 +23°C° 0 mm 1 mps 760 mmHg 74%
    10:00 +25°C° 0 mm 1 mps 760 mmHg 66%
    11:00 +25°C° 0 mm 1 mps 759 mmHg 64%
    12:00 +26°C° 0 mm 2 mps 759 mmHg 62%
    13:00 +27°C° 0 mm 2 mps 758 mmHg 60%
    14:00 +26°C° 0 mm 3 mps 758 mmHg 64%
    15:00 +26°C° 0 mm 3 mps 757 mmHg 68%
    16:00 +25°C° 0 mm 4 mps 757 mmHg 72%
    17:00 +22°C° 0 mm 3 mps 757 mmHg 77%
    18:00 +21°C° 0 mm 3 mps 757 mmHg 82%
    19:00 +19°C° 0 mm 3 mps 758 mmHg 88%
    20:00 +19°C° 0 mm 3 mps 758 mmHg 88%
    21:00 +18°C° 0 mm 4 mps 758 mmHg 89%
    22:00 +18°C° 0 mm 4 mps 758 mmHg 90%
    23:00 +18°C° 0 mm 4 mps 757 mmHg 90%

    26 April, Wednesday

    Time Temperature Precipitation Wind Pressure Humidity
    00:00 +18°C° 0 mm 4 mps 757 mmHg 90%
    01:00 +17°C° 0 mm 4 mps 756 mmHg 91%
    02:00 +16°C° 0 mm 5 mps 756 mmHg 91%
    03:00 +16°C° 0 mm 5 mps 756 mmHg 92%
    04:00 +16°C° 0 mm 5 mps 755 mmHg 92%
    05:00 +17°C° 0 mm 5 mps 756 mmHg 92%
    06:00 +17°C° 0 mm 5 mps 756 mmHg 92%
    07:00 +17°C° 0 mm 5 mps 756 mmHg 92%
    08:00 +20°C° 0 mm 5 mps 756 mmHg 84%
    09:00 +23°C° 0 mm 5 mps 756 mmHg 76%
    10:00 +26°C° 0 mm 6 mps 756 mmHg 67%
    11:00 +27°C° 0 mm 5 mps 755 mmHg 64%
    12:00 +28°C° 0 mm 5 mps 754 mmHg 61%
    13:00 +29°C° 0 mm 5 mps 753 mmHg 58%
    14:00 +28°C° 0.5 mm 5 mps 753 mmHg 61%
    15:00 +28°C° 0.5 mm 5 mps 753 mmHg 65%
    16:00 +27°C° 0.5 mm 5 mps 752 mmHg 68%
    17:00 +25°C° 0.6 mm 5 mps 753 mmHg 72%
    18:00 +22°C° 0.6 mm 5 mps 753 mmHg 77%
    19:00 +21°C° 0.6 mm 5 mps 754 mmHg 81%
    20:00 +20°C° 0.1 mm 5 mps 754 mmHg 82%
    21:00 +19°C° 0.1 mm 6 mps 755 mmHg 82%
    22:00 +19°C° 0.1 mm 6 mps 755 mmHg 83%
    23:00 +17°C° 0 mm 6 mps 755 mmHg 81%

    27 April, Thursday

    Time Temperature Precipitation Wind Pressure Humidity
    00:00 +17°C° 0 mm 6 mps 755 mmHg 80%
    01:00 +16°C° 0 mm 6 mps 755 mmHg 78%
    02:00 +15°C° 0 mm 5 mps 755 mmHg 79%
    03:00 +15°C° 0 mm 5 mps 755 mmHg 79%
    04:00 +14°C° 0 mm 4 mps 755 mmHg 80%
    05:00 +14°C° 0 mm 4 mps 755 mmHg 80%
    06:00 +14°C° 0 mm 4 mps 756 mmHg 79%
    07:00 +14°C° 0 mm 4 mps 756 mmHg 79%
    08:00 +17°C° 0 mm 4 mps 756 mmHg 71%
    09:00 +19°C° 0 mm 3 mps 757 mmHg 63%
    10:00 +21°C° 0 mm 3 mps 757 mmHg 55%
    11:00 +22°C° 0 mm 3 mps 756 mmHg 51%
    12:00 +24°C° 0 mm 2 mps 756 mmHg 47%
    13:00 +24°C° 0 mm 2 mps 755 mmHg 43%
    14:00 +24°C° 0 mm 3 mps 755 mmHg 48%
    15:00 +22°C° 0 mm 4 mps 755 mmHg 52%
    16:00 +21°C° 0 mm 5 mps 755 mmHg 57%
    17:00 +19°C° 0 mm 5 mps 756 mmHg 65%
    18:00 +16°C° 0 mm 5 mps 757 mmHg 73%
    19:00 +14°C° 0 mm 6 mps 758 mmHg 81%
    20:00 +14°C° 0 mm 5 mps 758 mmHg 79%
    21:00 +14°C° 0 mm 5 mps 758 mmHg 77%
    22:00 +14°C° 0 mm 5 mps 759 mmHg 75%
    23:00 +13°C° 0 mm 5 mps 758 mmHg 74%

    28 April, Friday

    Time Temperature Precipitation Wind Pressure Humidity
    00:00 +13°C° 0 mm 5 mps 758 mmHg 72%
    01:00 +13°C° 0 mm 5 mps 758 mmHg 70%
    02:00 +11°C° 0 mm 6 mps 758 mmHg 68%
    03:00 +11°C° 0 mm 6 mps 758 mmHg 65%
    04:00 +10°C° 0 mm 6 mps 758 mmHg 63%
    05:00 +10°C° 0 mm 6 mps 759 mmHg 62%
    06:00 +10°C° 0 mm 6 mps 759 mmHg 61%
    07:00 +10°C° 0 mm 6 mps 760 mmHg 60%
    08:00 +13°C° 0 mm 6 mps 760 mmHg 56%
    09:00 +15°C° 0 mm 6 mps 760 mmHg 52%
    10:00 +17°C° 0 mm 5 mps 760 mmHg 48%
    11:00 +20°C° 0 mm 5 mps 759 mmHg 47%
    12:00 +21°C° 0 mm 4 mps 759 mmHg 46%
    13:00 +22°C° 0 mm 4 mps 758 mmHg 45%
    14:00 +22°C° 0 mm 3 mps 758 mmHg 48%
    15:00 +21°C° 0 mm 3 mps 758 mmHg 51%
    16:00 +21°C° 0 mm 3 mps 758 mmHg 55%
    17:00 +19°C° 0 mm 3 mps 758 mmHg 62%
    18:00 +16°C° 0 mm 3 mps 759 mmHg 69%
    19:00 +13°C° 0 mm 3 mps 759 mmHg 77%
    20:00 +12°C° 0 mm 3 mps 759 mmHg 80%
    21:00 +12°C° 0 mm 2 mps 759 mmHg 83%
    22:00 +10°C° 0 mm 2 mps 759 mmHg 86%
    23:00 +10°C° 0 mm 2 mps 759 mmHg 85%
    Show more